Location: Fours
(44.3167°N, 6.7000°E)
Time: 01:42:37
(UTC+00:00)

Gbstr 26 Del rocket - Pass Details

Date: 16 October 2021
Orbit: 492 x 1263 km, 51.8° (Epoch: 02 December)

Event Time Altitude Azimuth Distance (km) Brightness Sun altitude
Rises 19:33:09 0° 301° (WNW) 3,904 8.3 -30.2°
Reaches altitude 10° 19:35:45 10° 299° (WNW) 3,031 7.4 -30.6°
Maximum altitude 19:43:17 71° 217° (SW) 1,296 4.5 -31.9°
Enters shadow 19:44:00 68° 183° (S) 1,327 4.5 -32.0°
